Limnos, Greece

3:52 AM EEST on May 23, 2017 (GMT +0300)
Limnos

Weather History for LGLM - March, 2013

Change the Weather History Date:

Thursday, March 7, 2013

  Actual Average Record
Temperature  
Mean Temperature 52 °F -  
Max Temperature 62 °F 57 °F 66 °F (2002)
Min Temperature 42 °F 44 °F 32 °F (1997)
Degree Days  
Heating Degree Days 13    
Growing Degree Days 2 (Base 50)    
Moisture  
Dew Point 45 °F    
Average Humidity 82    
Maximum Humidity 100    
Minimum Humidity 64    
Precipitation  
Precipitation 0.02 in 0.06 in - ()
Sea Level Pressure  
Sea Level Pressure 30.05 in    
Wind  
Wind Speed 3 mph ()    
Max Wind Speed 15 mph    
Max Gust Speed -    
Visibility 6.2 miles    
Events Rain    
Averages and records for this station are not official NWS values.
T = Trace of Precipitation, MM = Missing Value Source: Averaged Metar Reports

Daily Weather History Graph

Daily Weather History Graph

Search for Another Location

Airport or City:

Trip Planner

Search our weather history database for the weather conditions in past years. The results will help you decide how hot, cold, wet, or windy it might be!

Date:

Astronomy

Mar. 07, 2013 Rise Set
Actual Time 6:43 AM EET 6:17 PM EET
Civil Twilight 6:16 AM EET 6:44 PM EET
Nautical Twilight 5:45 AM EET 7:15 PM EET
Astronomical Twilight 5:13 AM EET 7:47 PM EET
Moon 3:27 AM EET (3/7) 1:44 PM EET (3/7)
Length of Visible Light 12h 28m
Length of Day
11h 34m
Waning Crescent, 23% of the Moon is Illuminated
Mar 7
Waning Crescent
Mar 11
New
Mar 19
First Quarter
Mar 27
Full
Apr 3
Last Quarter

Hourly Weather History & Observations

Time (EET) Temp. Windchill Dew Point Humidity Pressure Visibility Wind Dir Wind Speed Gust Speed Precip Events Conditions
12:20 AM 42.8 °F - 37.4 °F 81% 30.15 in - Calm Calm - N/A   Unknown
12:50 AM 42.8 °F - 37.4 °F 81% 30.15 in - Calm Calm - N/A   Unknown
1:20 AM 42.8 °F - 37.4 °F 81% 30.15 in - Calm Calm - N/A   Unknown
1:50 AM 42.8 °F - 37.4 °F 81% 30.15 in 6.2 mi Calm Calm - N/A   Mostly Cloudy
2:00 AM 43 °F - 38 °F 77% 30.17 in 6 mi Calm Calm - -   Partly Cloudy
2:20 AM 42.8 °F - 37.4 °F 81% 30.15 in - Calm Calm - N/A   Unknown
2:50 AM 42.8 °F - 39.2 °F 87% 30.12 in - Calm Calm - N/A   Unknown
3:20 AM 42.8 °F - 37.4 °F 81% 30.12 in - Calm Calm - N/A   Unknown
3:50 AM 42.8 °F - 39.2 °F 87% 30.12 in - Calm Calm - N/A   Unknown
4:20 AM 42.8 °F - 39.2 °F 87% 30.12 in - Calm Calm - N/A   Unknown
4:50 AM 42.8 °F - 39.2 °F 87% 30.09 in - Variable 2.3 mph - N/A Rain Light Rain
5:20 AM 44.6 °F - 39.2 °F 81% 30.09 in - Variable 2.3 mph - N/A Rain Light Rain
5:50 AM 44.6 °F 42.2 °F 39.2 °F 81% 30.06 in 6.2 mi ENE 4.6 mph - N/A   Overcast
6:20 AM 46.4 °F 43.5 °F 39.2 °F 76% 30.06 in 6.2 mi NNE 5.8 mph - N/A   Overcast
6:50 AM 46.4 °F - 39.2 °F 76% 30.06 in 6.2 mi Calm Calm - N/A   Overcast
7:20 AM 46.4 °F - 41.0 °F 81% 30.09 in 6.2 mi Calm Calm - N/A   Overcast
7:50 AM 48.2 °F - 41.0 °F 76% 30.09 in 6.2 mi Variable 3.5 mph - N/A   Overcast
8:00 AM 47 °F - 42 °F 75% 30.10 in 6 mi 3.5 mph - -   Overcast
8:20 AM 48.2 °F - 42.8 °F 82% 30.09 in 6.2 mi Variable 3.5 mph - N/A   Overcast
8:50 AM 50.0 °F - 44.6 °F 82% 30.09 in 6.2 mi Variable 3.5 mph - N/A   Overcast
9:20 AM 53.6 °F - 46.4 °F 77% 30.09 in 6.2 mi Variable 3.5 mph - N/A   Overcast
9:50 AM 53.6 °F - 46.4 °F 77% 30.06 in 6.2 mi Calm Calm - N/A   Overcast
10:20 AM 57.2 °F - 50.0 °F 77% 30.06 in 6.2 mi Variable 3.5 mph - N/A   Overcast
10:50 AM 59.0 °F - 50.0 °F 72% 30.06 in 6.2 mi SSW 9.2 mph - N/A   Overcast
11:20 AM 59.0 °F - 50.0 °F 72% 30.06 in 6.2 mi SSW 10.4 mph - N/A   Overcast
11:50 AM 59.0 °F - 50.0 °F 72% 30.04 in 6.2 mi SW 11.5 mph - N/A   Overcast
12:20 PM 60.8 °F - 50.0 °F 68% 30.04 in 6.2 mi SSW 11.5 mph - N/A   Overcast
12:50 PM 60.8 °F - 50.0 °F 68% 30.04 in 6.2 mi SSW 15.0 mph - N/A   Mostly Cloudy
1:20 PM 59.0 °F - 50.0 °F 72% 30.01 in 6.2 mi SSW 13.8 mph - N/A   Mostly Cloudy
1:50 PM 59.0 °F - 50.0 °F 72% 30.01 in 6.2 mi SSW 13.8 mph - N/A   Mostly Cloudy
2:00 PM 59 °F - 50 °F 64% 30.03 in 6 mi SSW 13.8 mph - -   Partly Cloudy
2:20 PM 57.2 °F - 50.0 °F 77% 30.01 in 6.2 mi SW 11.5 mph - N/A Rain Light Rain
2:50 PM 55.4 °F - 50.0 °F 82% 30.01 in 6.2 mi SW 11.5 mph - N/A Rain Light Rain
3:20 PM 55.4 °F - 51.8 °F 88% 30.01 in 6.2 mi SW 11.5 mph - N/A Rain Light Rain
3:50 PM 55.4 °F - 50.0 °F 82% 30.01 in 6.2 mi WSW 10.4 mph - N/A Rain Light Rain
4:20 PM 55.4 °F - 50.0 °F 82% 30.01 in 6.2 mi WSW 10.4 mph - N/A Rain Light Rain
4:50 PM 53.6 °F - 48.2 °F 82% 29.98 in 6.2 mi WSW 4.6 mph - N/A Rain Light Rain
5:20 PM 53.6 °F - 50.0 °F 88% 29.98 in 6.2 mi Variable 3.5 mph - N/A   Mostly Cloudy
5:50 PM 53.6 °F - 48.2 °F 82% 29.98 in 6.2 mi Calm Calm - N/A   Mostly Cloudy
6:20 PM 53.6 °F - 48.2 °F 82% 29.98 in 6.2 mi Calm Calm - N/A   Mostly Cloudy
6:50 PM 51.8 °F - 48.2 °F 88% 29.98 in 6.2 mi Calm Calm - N/A   Mostly Cloudy
7:20 PM 51.8 °F - 48.2 °F 88% 29.98 in 6.2 mi Calm Calm - N/A   Mostly Cloudy
7:50 PM 51.8 °F - 48.2 °F 88% 29.98 in 6.2 mi Variable 3.5 mph - N/A   Mostly Cloudy
8:00 PM 52 °F - 49 °F 85% 30.00 in 6 mi 3.5 mph - -   Partly Cloudy
8:20 PM 51.8 °F - 48.2 °F 88% 29.98 in - Variable 1.2 mph - N/A Rain Light Rain
8:50 PM 51.8 °F - 48.2 °F 88% 29.98 in - Variable 1.2 mph - N/A Rain Light Rain
9:20 PM 51.8 °F - 50.0 °F 94% 29.98 in - Calm Calm - N/A Rain Light Rain
9:50 PM 51.8 °F - 50.0 °F 94% 29.98 in - Variable 3.5 mph - N/A Rain Light Rain
10:20 PM 50.0 °F - 50.0 °F 100% 29.98 in - Calm Calm - N/A Rain Light Rain
10:50 PM 51.8 °F - 50.0 °F 94% 29.98 in - Calm Calm - N/A Rain Light Rain
11:20 PM 50.0 °F - 48.2 °F 94% 29.95 in - Calm Calm - N/A Rain Light Rain
11:50 PM 50.0 °F - 50.0 °F 100% 29.95 in - Calm Calm - N/A Rain Light Rain